Regional Weather Roundup
Issued by NWS

Home | Current Version | Previous Version | Text Only | Print | Product List | Glossary Off
Versions: 1 2 3 4 5 6 7 8 9 10 11 12 13 14 15 16 17 18 19 20 21 22 23 24 25 26 27 28 29 30 31 32 33 34 35 36 37 38 39 40 41 42 43 44 45 46 47 48 49 50

000
ASUS43 KMKX 260421
RWRWI

WISCONSIN REGIONAL WEATHER ROUNDUP
NATIONAL WEATHER SERVICE MILWAUKEE/SULLIVAN WI
1100 PM CDT SUN JUN 25 2017

NOTE: "FAIR" INDICATES FEW OR NO CLOUDS BELOW 12,000 FEET WITH NO
SIGNIFICANT WEATHER AND/OR OBSTRUCTIONS TO VISIBILITY.

WIZ001-002-006>008-014>016-023>028-260500-
NORTHWEST WISCONSIN

CITY           SKY/WX    TMP DP  RH WIND       PRES   REMARKS
SUPERIOR ARPT  NOT AVBL
ASHLAND        MOCLDY    50  45  83 NW7       30.08S
HAYWARD        MOCLDY    46  44  93 CALM      30.10S
SIREN          PTCLDY    46  44  94 CALM      30.13S
CUMBERLAND     PTCLDY    48  45  87 NW6       30.12S
RICE LAKE      CLEAR     50  47  89 W3        30.13S
CHETEK         CLEAR     49  47  92 CALM      30.11S
LADYSMITH      CLEAR     51  48  90 W8        30.11S
EAU CLAIRE     PTCLDY    49  48  97 CALM      30.10F
MENOMONIE      CLEAR     55  47  74 CALM      30.11F
NEW RICHMOND   PTCLDY    52  45  75 NW3       30.13S
OSCEOLA        MOCLDY    53  47  81 CALM      30.15F
$$

WIZ003>005-009-010-017-018-260500-
NORTH CENTRAL WISCONSIN

CITY           SKY/WX    TMP DP  RH WIND       PRES   REMARKS
MANITOWISH WTR CLOUDY    46  46 100 W6        30.04F
ARBOR VITAE    MOCLDY    51  48  92 NW3       30.04F
WOODRUFF       MOCLDY    51  48  92 NW3       30.04F
RHINELANDER    CLEAR     46  46 100 W5        30.06S
EAGLE RIVER    DRIZZLE   48  48  99 CALM      30.03F
LAND O LAKES   CLOUDY    49  47  94 W5        30.04S
PHILLIPS       PTCLDY    47  46  97 W3        30.06S
TOMAHAWK       NOT AVBL
MEDFORD        CLOUDY    50  48  93 W6        30.08S
MERRILL        PTCLDY    50  48  94 W6        30.07S
$$

WIZ029-030-035-036-043>047-260500-
CENTRAL WISCONSIN

CITY           SKY/WX    TMP DP  RH WIND       PRES   REMARKS
WAUSAU         CLEAR     51  48  89 W9        30.05F
MOSINEE        CLEAR     50  48  93 W7        30.08F
MARSHFIELD     CLEAR     50  46  86 W6        30.08F
STEVENS POINT  CLEAR     51  49  93 W5        30.08S
WAUPACA        PTCLDY    54  53  95 W5        30.06F
WAUTOMA        CLEAR     53  50  89 W8        30.09S
WISC RAPIDS    MOCLDY    52  48  86 W5        30.09F
CAMP DOUGLAS   MOCLDY    52  50  92 NW6       30.10F
$$

WIZ011>013-019>022-031-037>040-048>050-260500-
NORTHEAST WISCONSIN

CITY           SKY/WX    TMP DP  RH WIND       PRES   REMARKS
ANTIGO         CLEAR     48  46  93 NW8       30.05F
SHAWANO        CLEAR     54  49  83 W7        30.04S
OCONTO         PTCLDY    54  51  90 W9        30.01S
STURGEON BAY     N/A     57  53  86 W12         N/A
GREEN BAY      PTCLDY    56  50  80 W10       30.04S
MANITOWOC      MOCLDY    57  52  83 W10       30.03F
APPLETON       PTCLDY    54  52  94 W7        30.04S
CLINTONVILLE   PTCLDY    52  46  82 W6        30.05S
OSHKOSH        CLEAR     55  51  86 W5        30.06S
$$

WIZ032>034-041-042-053>061-260500-
SOUTHWEST WISCONSIN

CITY           SKY/WX    TMP DP  RH WIND       PRES   REMARKS
LA CROSSE      CLEAR     63  47  55 NW8       30.10S
SPARTA         MOCLDY    51  49  93 CALM      30.12S
VIROQUA        CLEAR     54  47  77 W6        30.12S
BOSCOBEL       CLEAR     52  50  93 SW5       30.12S
PRAIRIE DU CHI CLEAR     53  48  82 CALM      30.13R
PLATTEVILLE    CLEAR     54  50  85 SW5       30.14S
$$

WIZ056-057-062-063-064-067-068-260500-
SOUTH CENTRAL WISCONSIN

CITY           SKY/WX    TMP DP  RH WIND       PRES   REMARKS
REEDSBURG      MOCLDY    51  51 100 SW5       30.11S
BARABOO/DELLS  CLOUDY    54  51  90 W3        30.11S
LONE ROCK      CLEAR     54  48  80 CALM      30.11S
MINERAL POINT  CLEAR     55  50  82 W3        30.12S
MADISON        MOCLDY    54  51  90 W3        30.10S
MIDDLETON      PTCLDY    53  53 100 CALM      30.11S
WATERTOWN      NOT AVBL
MONROE         CLEAR     55  48  76 W9        30.12S
JANESVILLE     CLEAR     57  50  77 CALM      30.11S
$$

WIZ051-052-058>065-066-070>072-260500-
SOUTHEAST WISCONSIN

CITY           SKY/WX    TMP DP  RH WIND       PRES   REMARKS
MILWAUKEE      MOCLDY    59  54  83 W8        30.08F
WAUKESHA       CLEAR     52  50  93 W8        30.10S
MILWAUKEE/TIMM MOCLDY    55  50  82 W9        30.08F
RACINE         CLOUDY    57  53  86 W7        30.10S
KENOSHA        MOCLDY    58  51  78 W10       30.10S
FOND DU LAC    CLEAR     56  51  84 W6        30.07S
SHEBOYGAN      CLOUDY    57  55  93 W10       30.05S
WEST BEND      PTCLDY    54  52  94 W7        30.07F
JUNEAU         CLEAR     53  51  94 SW5       30.09F
$$

LSZ147-162-260500-
LAKE SUPERIOR

STATION/POSITION TIME  TEMP    WIND        PRES    WAVE
                       AIR SEA DIR/SP/G            HT/PER
                 (UTC) (F)     (DEG/KT/KT) (MB)    (FT/S)
W MID LAKE BUOY  0350   43 39  330/ 12/ 14 1017.1F   0
DEVILS ISLAND    0400   49     330/ 13/ 15 1018.6S
SAXON HARBOR     0330   54     320/ 16/ 20 1017.6R
$$

LMZ867-665-643>646-260500-
LAKE MICHIGAN

STATION/POSITION TIME  TEMP    WIND        PRES    WAVE
                       AIR SEA DIR/SP/G            HT/PER
                 (UTC) (F)     (DEG/KT/KT) (MB)    (FT/S)
CHAMBERS ISLAND  0340   57     290/  8/ 11 1015.2S
S GREEN BAY BUOY 0400   59     270/ 16/ 21 1015.7
N MID LAKE BUOY  0350   57 57  340/  8/ 10 1015.5R   2/ 5
NORTHPORT PIER   0340   59     320/  7/ 11 1015.2S
KEWAUNEE LAKESHO 0354   57     280/  7/ 10 1015.7F
SHEBOYGAN LAKESH 0400   58     260/ 10/ 11 1017.1F
PORT WASHINGTON  0340   59     270/  7/ 12 1018.6S
ATWATER BUOY     0309   59 57  270/ 12/ 16 1018.2R
MILWAUKEE LAKESH 0400   59     290/  9/ 10   N/A
S MID LAKE BUOY  0350   60 61  310/ 17/ 21 1017.7F   3/ 4
KENOSHA   LAKESH 0400   60     270/  8/ 15 1018.6
$$

TC  - TEMPERATURE IN CELSIUS
VSB - VISIBILITY IN STATUTE MILES
WCI - WIND CHILL INDEX
HX  - HEAT INDEX





USA.gov is the U.S. government's official web portal to all federal, state and local government web resources and services.